Location: Dunedin
(45.8670°S, 170.5000°E)
Time: 03:23:38
(UTC+12:00)

Cosmos 2278 Rocket - Pass Details

Date: 24 January 2019
Orbit: 841 x 846 km, 71.0° (Epoch: 17 April)

Event Time Altitude Azimuth Distance (km) Brightness Sun altitude
Rises 23:26:42 0° 201° (SSW) 3,438 6.9 -17.3°
Reaches altitude 10° 23:29:30 10° 190° (S) 2,497 5.6 -17.5°
Maximum altitude 23:34:28 29° 130° (SE) 1,509 3.5 -18.0°
Enters shadow 23:37:43 18° 82° (E) 1,987 3.8 -18.3°
